Regional Weather Roundup
Issued by NWS

Home | Current Version | Previous Version | Text Only | Print | Product List | Glossary Off
Versions: 1 2 3 4 5 6 7 8 9 10 11 12 13 14 15 16 17 18 19 20 21 22 23 24 25 26 27 28 29 30 31 32 33 34 35 36 37 38 39 40 41 42 43 44 45 46 47 48 49 50

000
ASUS44 KMEG 191310
RWRTN
TENNESSEE HOURLY STATE WEATHER ROUNDUP
NATIONAL WEATHER SERVICE MEMPHIS TN
700 AM CST THU JAN 19 2017

TNZ002-004-019-021-049-052-054-088>092-191400-
WEST TENNESSEE

CITY           SKY/WX    TMP DP  RH WIND       PRES   REMARKS
MEMPHIS INTL   CLOUDY    58  57  97 E6        29.84F FOG
NWS MEMPHIS      N/A     57 N/A N/A MISG        N/A
JACKSON        CLOUDY    52  52 100 E5        29.91F
DYERSBURG      CLOUDY    48  46  93 SE8       29.89S
UNION CITY     CLOUDY   N/A N/A N/A CALM      29.90F
PARIS          CLOUDY    45  45 100 E8        29.93F
HUNTINGDON     CLOUDY    48  48 100 E8        29.92F FOG
$$

TNZ008-025-027-028-033-062-065-066-191400-
NORTH MIDDLE TENNESSEE

CITY           SKY/WX    TMP DP  RH WIND       PRES   REMARKS
NASHVILLE      CLOUDY    48  45  89 NE6       30.01F FOG
PORTLAND       CLOUDY    46  46 100 SE5       30.01F FOG
CLARKSVILLE    CLOUDY    47  44  90 E3        29.98F FOG
SMYRNA         CLOUDY    48  47  96 N3        30.01F FOG
GALLATIN       CLOUDY    46  46 100 NE6       30.04F FOG
CROSSVILLE     CLOUDY    47  43  86 SE3       30.03F
$$

TNZ061-075-076-078-094-096-097-191400-
SOUTH MIDDLE TENNESSEE

CITY           SKY/WX    TMP DP  RH WIND       PRES   REMARKS
FAYETTEVILLE   CLOUDY    57  54  88 SE8       29.97F
TULLAHOMA      MOCLDY    50  50 100 CALM      29.99F
WINCHESTER     CLOUDY    52  52 100 E8        30.00S
MCMINNVILLE    CLOUDY    50  50 100 CALM      30.01S
COLUMBIA       PTCLDY   N/A N/A N/A E3        29.95F
SHELBYVILLE    CLOUDY    52  52 100 E5        29.99F
$$

TNZ017-018-042-046-047-191400-
NORTHEAST TENNESSEE

CITY           SKY/WX    TMP DP  RH WIND       PRES   REMARKS
TRI CITIES     CLOUDY    36  34  92 CALM      30.08F
ELIZABETHTON   CLOUDY    39  37  93 CALM      30.09S
$$

TNZ012-013-036-069-073-074-191400-
CENTRAL EAST TENNESSEE

CITY           SKY/WX    TMP DP  RH WIND       PRES   REMARKS
KNOXVILLE      MOCLDY    44  40  85 N6        30.05S
OAK RIDGE      MOCLDY    44  40  85 CALM      30.08S
GATLINBURG     CLEAR     39  37  93 CALM      30.06S
MORRISTOWN     CLEAR     45  41  87 NE5       30.06S
JACKSBORO      CLEAR     41  41 100 CALM      30.10S
$$

TNZ083-085-099-191400-
SOUTHEAST TENNESSEE

CITY           SKY/WX    TMP DP  RH WIND       PRES   REMARKS
CHATTANOOGA    DRIZZLE   49  44  83 N3        30.05F
$$

SKY/WX REPORTED AS FAIR MEANS FEW OR NO CLOUDS BELOW
12 THOUSAND FEET.





USA.gov is the U.S. government's official web portal to all federal, state and local government web resources and services.